Voltar ao catálogo

CZ-6A DEB

AtivoSSO
NORAD 54554·DEBRIS·🇨🇳 China

Lançado Nov 11, 2022 de Taiyuan Satellite Launch Center

Loading…

Próximas Passagens (próximas 24 horas)

TLE

AtualizadoSource: Space-Track

Época: Sep 13, 2026, 13:26 UTC

1 54554U 22151LE  26256.55990583  .00000184  00000-0  12613-3 0  9998
2 54554  98.8546 258.1090 0051181  51.2200 309.3526 14.10587858197233

Acompanhe CZ-6A DEB em tempo real com AllMySat

Download on the App Store